Regional Weather Roundup
Issued by NWS

Home | Current Version | Previous Version | Graphics & Text | Print | Product List | Glossary On
Versions: 1 2 3 4 5 6 7 8 9 10 11 12 13 14 15 16 17 18 19 20 21 22 23 24 25 26 27 28 29 30 31 32 33 34 35 36 37 38 39 40 41 42 43 44 45 46 47 48 49 50
000
ASUS43 KDTX 220810
RWRMI
MICHIGAN HOURLY REGIONAL WEATHER ROUNDUP
NATIONAL WEATHER SERVICE DETROIT/PONTIAC MI
300 AM EST THU FEB 22 2018

NOTE: "FAIR" INDICATES FEW OR NO CLOUDS BELOW 12,000 FEET WITH NO
SIGNIFICANT WEATHER AND/OR OBSTRUCTION TO VISIBILITY.

MIZ047>049-052>055-059>063-066>070-074>076-081>083-220900-
SOUTHEAST LOWER MICHIGAN

CITY           SKY/WX    TMP DP  RH WIND       PRES   REMARKS
ADRIAN         MOCLDY    31  27  85 E10       30.58F WCI  22
ALMA           FAIR      29  26  87 NE5       30.62S WCI  24
ANN ARBOR      FAIR      30  26  85 NE8       30.59F WCI  22
BAD AXE        MOCLDY    26  23  88 E3        30.65F
CARO           FAIR      27  24  89 E3        30.63F
DETROIT CITY   FAIR      29  24  82 NE9       30.62F WCI  20
DETROIT        CLOUDY    31  26  82 NE12      30.61F WCI  22
FLINT          FAIR      29  26  89 E10       30.62F WCI  20
GROSSE ILE     FAIR      31  26  82 NE13      30.61S WCI  21
HILLSDALE      CLOUDY    32  30  93 E12       30.53F FOG     WCI  23
HOWELL         FAIR      30  29  94 E7        30.59F WCI  23

CITY           SKY/WX    TMP DP  RH WIND       PRES   REMARKS
JACKSON        FAIR      32  30  92 E7        30.57S WCI  26
LAMBERTVILLE   CLOUDY    31  27  83 E6        30.59F WCI  25
LANSING        FAIR      30  26  85 NE7       30.59F WCI  23
LAPEER         CLOUDY    29  25  86 E5        30.63F WCI  24
MASON          FAIR      32  28  83 E8        30.58F WCI  25
MONROE         CLOUDY    31  26  82 NE8       30.59F WCI  24
MT. CLEMENS    CLOUDY    29  29  99 NE9       30.62F WCI  20
PONTIAC        FAIR      28  25  88 NE9       30.59F WCI  19
PORT HOPE        N/A     29  21  72 E10       30.65F WCI  20
PORT HURON     FAIR      28  21  74 MISG      30.65F
TRI CITIES     MOCLDY    29  25  85 E10       30.64S WCI  20
MIDLAND        CLOUDY    29  27  92 E5        30.63F WCI  24
TROY           FAIR      30  26  84 NE9       30.63F WCI  22
SAGINAW HB     FAIR      30  27  86 E8        30.63F WCI  23
$$
MIZ043>046-050>051-056>058-064>065-071>073-077>080-220900-
SOUTHWEST LOWER MICHIGAN

CITY           SKY/WX    TMP DP  RH WIND       PRES   REMARKS
BATTLE CREEK   FAIR      32  27  81 NE7       30.56F WCI  26
BENTON HARBOR  FAIR      30  23  75 NE5       30.57S WCI  25
BIG RAPIDS     FAIR      24  19  80 CALM      30.61S
COLDWATER      MOCLDY    33  31  92 E8        30.54F WCI  26
FREMONT        FAIR      24  16  70 NE3       30.63R
HOLLAND        FAIR      29  21  72 NE6       30.60F WCI  23
GRAND RAPIDS   FAIR      29  22  75 NE8       30.59F WCI  21
IONIA          FAIR      30  25  79 NE7       30.58F WCI  23
KALAMAZOO      FAIR      32  27  81 NE7       30.57S WCI  26
LUDINGTON      FAIR      22  19  88 E3        30.65S
MARSHALL       FAIR      32  28  84 NE6       30.55F WCI  26
MOUNT PLEASANT FAIR      28  22  79 NE3       30.62F
MUSKEGON       FAIR      26  19  74 N6        30.63R WCI  19
SOUTH HAVEN    FAIR      30  24  81 NE7       30.57S WCI  23
$$
MIZ016>042-220900-
NORTHERN LOWER MICHIGAN

CITY           SKY/WX    TMP DP  RH WIND       PRES   REMARKS
ALPENA         FAIR      18  17  96 CALM      30.68S
BEAVER ISLAND  FAIR      14  11  90 CALM      30.67S
BELLAIRE       FAIR      18  18 100 CALM      30.68S
CADILLAC       FAIR      19  18  93 NE3       30.60R
CHARLEVOIX     FAIR      19  17  95 CALM      30.70F
FRANKFORT      FAIR      22  18  87 CALM      30.65F
GAYLORD        FAIR      18  17  96 CALM      30.62S
GRAYLING       FAIR      18  17  93 CALM      30.62S
HARBOR SPRINGS FAIR      15  14  92 NE3       30.67S
HOUGHTON LAKE  FAIR      21  17  84 NE5       30.62F WCI  15
MANISTEE       FAIR      21  18  88 E6        30.65F WCI  13
OSCODA         FAIR      22  17  81 N6        30.66F WCI  15
PELLSTON       FAIR      11   8  88 CALM      30.68S
ROGERS CITY    FAIR      18  15  88 CALM      30.69S
TRAVERSE CITY  FAIR      22  18  85 CALM      30.66S
$$
MIZ007>008-015-220900-
EASTERN UPPER MICHIGAN

CITY           SKY/WX    TMP DP  RH WIND       PRES   REMARKS
KINROSS        FAIR       8   5  87 E5        30.67F WCI   0
MACKINAC ISLAN FAIR      15  13  92 CALM      30.67S
NEWBERRY       FAIR       8   7  97 CALM      30.65F
S. S. MARIE    FAIR      12   8  84 E3        30.67F
MUNISING         N/A      4   2  91 S5        30.67S WCI  -5
$$
MIZ004>006-011>014-085-220900-
CENTRAL UPPER MICHIGAN

CITY           SKY/WX    TMP DP  RH WIND       PRES   REMARKS
MANISTIQUE     FAIR       7   6  94 CALM      30.65F
ESCANABA       FAIR       6   3  87 CALM      30.67S
MENOMINEE      FAIR      15  10  80 NW5       30.67S WCI   8
SAWYER-GWINN   FAIR       3  -1  84 CALM      30.63S
$$
MIZ001>003-009>011-084-220900-
WESTERN UPPER MICHIGAN

CITY           SKY/WX    TMP DP  RH WIND       PRES   REMARKS
IRON MOUNTAIN  FAIR       5   0  79 CALM      30.61F
HOUGHTON       FAIR       6   0  76 NW6       30.61F WCI  -4
COPPER HARBOR    N/A     13   5  70 SW8       30.64S WCI   2
IRONWOOD       FAIR       0  -3  87 CALM      30.62S
$$

ABBREVIATIONS USED IN REMARKS
   TC - TEMPERATURE IN CELSIUS
  WCI - WIND CHILL INDEX
   HX - HEAT INDEX
  VSB - VISIBILITY





USA.gov is the U.S. government's official web portal to all federal, state and local government web resources and services.